Find Starlink 32222

NORAD ID: 60435 Int'l Des: 2024-144 Owner: SPXS Country: US Constellation: starlink operational
LEOCIRCULAR

实时位置

正在加载3D地球...

关于 Starlink 32222

正在加载描述...

即将过境

Passes for default location (London). Set your location on the main map for personalized predictions.

高度历史

Loading altitude history...

两行轨道根数

1 60435U 24144L 26122.97329701 .00001218 00000-0 47154-4 0 9991
2 60435 53.1587 324.7461 0000295 58.4414 301.6617 15.34392910 97623
Epoch: May 2, 2026 • Age: 24 hours

当前状态

高度 467.2 km
速度 7.64 km/s
星下点 44.62°N, 118.98°W
发射日期 Aug 12, 2024
运行时间 1.7 years
类型 internet

技术详情

分类 Payload
质量 730.00 kg
干质量 700.00 kg
总质量 730.00 kg
长度 0.30 m
直径 4.10 m
跨度 29.00 m
形状 Box + pan
制造商 SPXS
平台类型 Starlink V2M
阶段状态 In Orbit
所有者/国家 SPXS/US

Most Searched